Location: LDNL
(36.4545°S, 141.6685°E)
Time: 11:39:38
(UTC+10:00)

Vanguard 3 - Pass Details

Date: 03 February 2022
Orbit: 508 x 3258 km, 33.3° (Epoch: 25 May)

Event Time Altitude Azimuth Distance (km) Brightness Sun altitude
Rises 06:13:41 0° 263° (W) 5,462 10.9 -7.8°
Reaches altitude 10° 06:17:27 10° 272° (W) 4,826 10.5 -7.1°
Maximum altitude 06:29:28 31° 327° (NNW) 4,222 10.3 -4.9°
Drops below altitude 10° 06:44:58 10° 19° (NNE) 6,185 11.6 -2.1°
Sets 06:50:48 0° 28° (NNE) 7,177 12.1 -1.0°
